Flag for U.S.A. Weather past 2 weeks in Palm Springs, California, U.S.A.

Now
58 °F

Mostly cloudy.


Feels Like: 58 °F
Forecast: 56 / 72 °F
Wind: No wind

Location: Palm Springs Regional Airport

Current Time: Jan 27, 2015 at 6:44:32 AM

Latest Report: Jan 27, 2015 at 5:53 AM


Visibility: 10 mi

Pressure: 30.23 "Hg

Humidity: 90%

Dew point: 55 °F

Location of Palm SpringsLocation

Historic Weather in Palm Springs — Graph

°F

Palm Springs temperature yesterday

Maximum temperature yesterday: 66 °F (at 10:53 AM)
Minimum temperature yesterday: 57 °F (at 8:53 PM)
Average temperature yesterday: 61 °F

Past Weeks' High & Low Weather Summary

 TemperatureHumidityPressure
High82 °F (Jan 25, 1:53 PM)93% (Jan 26, 8:53 PM)30.36 "Hg (Jan 26, 8:53 PM)
Low46 °F (Jan 23, 5:53 AM)6% (Jan 22, 11:53 AM)29.88 "Hg (Jan 20, 5:53 PM)
Average64 °F32%30.15 "Hg
* Reported Jan 12 5:53 AM — Jan 27 5:53 AM, Palm Springs, Weather by CustomWeather, © 2014

Note: Actual official high and low records may vary slightly from our data, if they occured in-between our weather recording intervals... More about our weather records

Advertising

Palm Springs weather history for previous 24 hours

 ConditionsComfort  
Time TempWeatherWind HumidityBarometerVisibility
5:53 AM
Jan 27
58 °FMostly cloudy.No wind90%30.23 "Hg10 mi
4:53 AM58 °FOvercast.No wind87%30.21 "Hg10 mi
3:53 AM58 °FMostly cloudy.3 mph90%30.20 "Hg10 mi
2:53 AM58 °FFog.No wind90%30.19 "Hg6 mi
1:53 AM58 °FFog.No wind90%30.18 "Hg6 mi
12:53 AM58 °FOvercast.No wind90%30.18 "Hg7 mi
11:53 PM
Jan 26
58 °FOvercast.No wind90%30.17 "Hg7 mi
10:53 PM58 °FOvercast.No wind87%30.17 "Hg10 mi
9:53 PM58 °FMostly cloudy.No wind87%30.16 "Hg10 mi
8:53 PM57 °FMostly cloudy.3 mph93%30.15 "Hg10 mi
7:53 PM58 °FLight rain. Mostly cloudy.5 mph90%30.14 "Hg10 mi
6:53 PM58 °FOvercast.No wind87%30.12 "Hg10 mi
5:53 PM58 °FLight rain. Overcast.5 mph87%30.11 "Hg7 mi
4:53 PM59 °FLight rain. Cloudy.No wind84%30.11 "Hg10 mi
3:53 PM61 °FLight rain. Overcast.3 mph72%30.10 "Hg5 mi
2:53 PM64 °FOvercast.5 mph63%30.09 "Hg10 mi
1:53 PM65 °FLight rain. Mostly cloudy.3 mph61%30.09 "Hg10 mi
12:53 PM65 °FCloudy.13 mph59%30.11 "Hg10 mi
11:53 AM66 °FCloudy.5 mph32%30.15 "Hg10 mi
10:53 AM66 °FMostly cloudy.5 mph34%30.15 "Hg10 mi
9:53 AM64 °FCloudy.5 mph34%30.15 "Hg10 mi
8:53 AM64 °FMore clouds than sun.No wind30%30.10 "Hg10 mi
7:53 AM62 °FPartly sunny.3 mph35%30.10 "Hg10 mi
6:53 AM61 °FOvercast.No wind36%30.08 "Hg10 mi
Weather by CustomWeather, © 2014

See weather overviewHow to use our weather pages